[[[{"header":{"parameterUnit":"kt","parameterCategory":2,"dx":1,"dy":1,"la1":30.253999710083008,"la2":30.299108505249023,"lo1":-89.0895004272461,"lo2":-89.04439544677734,"nx":28,"ny":28,"refTime":"2022-10-28T21:00:00:Z","depth":0,"parameterNumber":1,"parameterNumberName":"U-component_of_WINDS"},"data":[-9.8999,-9.9233,-9.9219,-9.9483,-9.9514,-9.9693,-9.9753,-9.9829,-9.9886,-10.0101,-10.0223,-10.0234,-10.0287,-10.0432,-10.0565,-10.0567,-10.0626,-10.0722,-10.0709,-10.0287,-10.0228,-10.0172,-10.0113,-10.0735,-10.0736,-10.1148,-10.1152,-10.1155,-9.8701,-9.8734,-9.8867,-9.8986,-9.9102,-9.9001,-9.9089,-9.9193,-9.9356,-9.9428,-9.9545,-9.9733,-9.988,-9.99,-10.0041,-10.0155,-10.0116,-10.0195,-10.0186,-10.0197,-9.9745,-9.9684,-10.0224,-10.0224,-10.0224,-10.0224,-10.0224,-10.0224,-9.8156,-9.8297,-9.8357,-9.8501,-9.8556,-9.8637,-9.877,-9.8776,-9.8908,-9.9048,-9.9003,-9.9188,-9.9258,-9.9417,-9.9467,-9.9613,-9.9523,-9.9604,-9.9625,-9.9647,-9.9675,-9.9089,-9.9636,-9.9634,-9.9632,-9.9631,-9.963,0,-9.7751,-9.7728,-9.7851,-9.7973,-9.8076,-9.8169,-9.825,-9.8332,-9.8276,-9.8387,-9.8547,-9.8637,-9.8817,-9.8968,-9.9094,-9.9127,-9.9034,-9.9022,-9.9078,-9.9104,-9.9113,-9.9115,-9.8382,-9.9006,-9.9,-9.8996,-9.8993,-9.8991,-9.7202,-9.7365,-9.7418,-9.7508,-9.7546,-9.7693,-9.7776,-9.7712,-9.7805,-9.7898,-9.8027,-9.8175,-9.829,-9.8552,-9.8558,-9.8693,-9.8649,-9.8889,-9.8668,-9.8688,-9.8657,-9.8648,-9.8667,-9.8934,-9.8941,-9.8947,-9.8952,0,-9.6895,-9.6862,-9.7109,-9.7143,-9.7157,-9.7334,-9.7364,-9.7503,-9.7491,-9.7681,-9.7721,-9.7705,-9.7864,-9.7829,-9.8003,-9.7982,-9.8283,-9.8234,-9.826,-9.8249,-9.8464,-9.8446,-9.9158,-9.925,-9.8602,-9.8608,-9.8613,0,-9.6414,-9.6631,-9.6569,-9.6714,-9.6955,-9.6881,-9.7122,-9.7135,-9.7187,-9.7335,-9.722,-9.7362,-9.7293,-9.7433,-9.74,-9.7639,-9.767,-9.7669,-9.7658,-9.768,-9.7681,-9.773,-9.7701,-9.7621,-9.7617,-9.7614,-9.7611,0,-9.5938,-9.6155,-9.639,-9.6434,-9.6489,-9.6603,-9.6632,-9.6687,-9.677,-9.6871,-9.6924,-9.7049,-9.7118,-9.7218,-9.7173,-9.7025,-9.7463,-9.7249,-9.7461,-9.7463,-9.756,-9.7555,-9.8194,-9.7607,-9.7606,-9.7604,-9.7603,0,-9.5542,-9.564,-9.5983,-9.6026,-9.6086,-9.6241,-9.6355,-9.6479,-9.6546,-9.6533,-9.6612,-9.6529,-9.673,-9.6522,-9.68,-9.662,-9.6697,-9.6711,-9.6726,-9.6742,-9.6511,-9.6879,-9.7489,-9.7553,-9.6759,-9.6752,-9.6746,0,-9.5009,-9.5343,-9.5278,-9.5606,-9.5755,-9.5612,-9.5783,-9.5843,-9.5839,-9.5968,-9.5963,-9.6111,-9.5947,-9.5988,-9.6131,-9.6133,-9.6368,-9.61,-9.6296,-9.6304,-9.6284,-9.6844,-9.6944,-9.7359,-9.6655,-9.6665,-9.6672,0,-9.4588,-9.4646,-9.4708,-9.4755,-9.4817,-9.494,-9.5136,-9.5262,-9.5352,-9.543,-9.5595,-9.5799,-9.5686,-9.5753,-9.5697,-9.5848,-9.6207,-9.5705,-9.5705,-9.58,-9.6604,-9.6699,-9.6769,-9.6138,-9.6149,-9.6158,-9.6599,0,-9.4005,-9.4163,-9.4329,-9.4431,-9.4519,-9.4719,-9.4672,-9.4772,-9.4707,-9.4695,-9.4936,-9.4973,-9.5104,-9.517,-9.5108,-9.5461,-9.5396,-9.5272,-9.5066,-9.5433,-9.5578,-9.5637,-9.4855,-9.4849,-9.4843,-9.4839,0,0,-9.3504,-9.3728,-9.3646,-9.3829,-9.3898,-9.3741,-9.396,-9.401,-9.4113,-9.4166,-9.405,-9.4344,-9.4379,-9.4676,-9.4786,-9.4838,-9.4898,-9.477,-9.5258,-9.5305,-9.5348,-9.5504,-9.5566,-9.483,-9.4827,-9.4826,-9.4824,0,-9.3279,-9.3309,-9.3523,-9.3569,-9.3633,-9.3607,-9.3659,-9.3695,-9.3697,-9.3927,-9.3797,-9.3935,-9.4169,-9.4225,-9.4284,-9.4733,-9.4628,-9.4776,-9.5034,-9.5206,-9.526,-9.5308,-9.5472,-9.5531,-9.4811,-9.4812,-9.4812,0,-9.2858,-9.2881,-9.2977,-9.312,-9.316,-9.3315,-9.3087,-9.3259,-9.3374,-9.3194,-9.3425,-9.344,-9.3509,-9.3793,-9.3918,-9.3817,-9.4386,-9.4195,-9.4228,-9.4241,-9.4405,-9.447,-9.4528,-9.3767,-9.3763,-9.376,0,0,-9.2671,-9.2814,-9.2816,-9.3067,-9.3102,-9.3064,-9.314,-9.3081,-9.3142,-9.3168,-9.3182,-9.3249,-9.3384,-9.3475,-9.3599,-9.3916,-9.3927,-9.4068,-9.4118,-9.4158,-9.4194,-9.4368,-9.4433,-9.3747,-9.3747,-9.3746,0,0,-9.2581,-9.2591,-9.2512,-9.2796,-9.2857,-9.2877,-9.3034,-9.2939,-9.3044,-9.3015,-9.2926,-9.294,-9.3204,-9.3223,-9.3054,-9.3525,-9.3323,-9.3362,-9.3503,-9.3565,-9.3613,-9.3604,-9.2826,0,0,0,0,0,-9.2322,-9.2589,-9.2517,-9.2557,-9.2735,-9.2916,-9.2939,-9.2869,-9.2728,-9.2855,-9.2852,-9.2731,-9.3114,-9.2962,-9.3005,-9.3194,-9.3579,-9.3608,-9.3637,-9.3893,-9.3957,-9.4012,0,0,0,0,0,0,-9.2337,-9.2386,-9.251,-9.2542,-9.2581,-9.2906,-9.2651,-9.264,-9.2712,-9.2686,-9.2736,-9.2733,-9.2679,-9.2935,-9.2975,-9.3157,-9.2812,-9.359,-9.3616,-9.3638,-9.3915,-9.3968,-9.4013,0,0,0,0,0,-9.2349,-9.2387,-9.269,-9.2537,-9.2572,-9.2542,-9.264,-9.2629,-9.2684,-9.2678,-9.2671,-9.2624,-9.2686,-9.2715,-9.2959,-9.314,-9.2784,-9.2799,-9.3607,-9.3627,-9.3645,-9.3941,0,0,0,0,0,0,-9.2357,-9.238,-9.2695,-9.2703,-9.2429,-9.2523,-9.2534,-9.262,-9.267,-9.2666,-9.256,-9.2539,-9.2694,-9.2715,-9.2738,-9.3139,-9.2761,-9.2777,-9.2786,-9.3622,-9.3638,-9.3651,0,0,0,0,0,0,-9.2358,-9.2388,-9.2699,-9.2567,-9.2558,-9.2505,-9.2516,-9.2712,-9.2673,-9.2549,-9.2532,-9.2551,-9.2661,-9.2717,-9.2734,-9.3043,-9.2744,-9.2758,-9.2769,-9.2775,-9.3635,-9.3647,0,0,0,0,0,0,-9.2369,-9.2395,-9.2564,-9.2558,-9.255,-9.2635,-9.2677,-9.2865,-9.2555,-9.255,-9.2526,-9.2512,-9.2667,-9.2682,-9.2732,-9.3035,-9.3041,-9.2744,-9.2754,-9.2761,-9.2766,0,0,0,0,0,0,0,-9.2378,-9.2225,-9.2648,-9.2551,-9.2544,-9.2777,-9.2779,-9.2782,-9.2552,-9.2541,-9.2529,-9.2518,-9.266,-9.2676,-9.2692,-9.3028,0,0,-9.2743,-9.275,0,0,0,0,0,0,0,0,-9.2213,-9.2222,-9.2648,-9.265,-9.2651,-9.2778,-9.2779,-9.2781,-9.255,-9.2541,-9.2531,-9.2523,-9.2664,-9.2677,-9.269,0,0,0,0,0,0,0,0,0,0,0,0,0,0,0,-9.2648,-9.265,0,-9.2778,-9.2779,-9.2781,-9.2549,-9.2541,-9.2533,-9.2526,-9.2668,-9.2678,-9.2689,0,0,0,0,0,0,0,0,0,0,0,0,0,0,0,0,0,0,0,0,0,0,0,0,0,0,0,0,0,0,0,0,0,0,0,0,0,0,0,0,0,0,0,0,0,0,0,0,0,0,0,0,0,0,0,0,0,0,0,0,0,0,0,0,0,0,0,0,0]}],[{"header":{"parameterUnit":"kt","parameterCategory":2,"dx":1,"dy":1,"la1":30.253999710083008,"la2":30.299108505249023,"lo1":-89.0895004272461,"lo2":-89.04439544677734,"nx":28,"ny":28,"refTime":"2022-10-28T21:00:00:Z","depth":0,"parameterNumber":2,"parameterNumberName":"V-component_of_WINDS"},"data":[0.9346,0.9298,0.9225,0.9137,0.9056,0.8983,0.8932,0.886,0.8782,0.8686,0.8616,0.8535,0.8426,0.8324,0.8244,0.8209,0.818,0.8221,0.8172,0.8062,0.8042,0.8023,0.8029,0.8216,0.8216,0.8296,0.8297,0.8298,0.9282,0.9202,0.9133,0.9015,0.8956,0.8874,0.8773,0.8728,0.8663,0.8567,0.8493,0.84,0.8315,0.8188,0.8094,0.807,0.8024,0.805,0.805,0.8034,0.7914,0.7922,0.8089,0.8089,0.8089,0.8089,0.8089,0.8089,0.9145,0.9119,0.9004,0.8927,0.8846,0.8768,0.8729,0.8628,0.8558,0.845,0.8371,0.8295,0.8181,0.8026,0.7954,0.7893,0.7849,0.7852,0.7852,0.7855,0.7871,0.777,0.7872,0.7871,0.7871,0.787,0.7869,0,0.9022,0.8962,0.8887,0.8793,0.8731,0.8649,0.856,0.8534,0.8373,0.8321,0.8238,0.8177,0.8056,0.7969,0.786,0.7782,0.7687,0.7668,0.7669,0.7708,0.7759,0.7733,0.7543,0.7664,0.7662,0.7661,0.7659,0.7659,0.888,0.8856,0.8695,0.8654,0.8585,0.8519,0.8464,0.8322,0.827,0.8138,0.812,0.803,0.7949,0.7827,0.7704,0.7612,0.7564,0.762,0.7549,0.759,0.7566,0.757,0.7567,0.7636,0.7639,0.7642,0.7643,0,0.8808,0.868,0.8617,0.8457,0.8417,0.8399,0.8261,0.8226,0.8129,0.8067,0.8045,0.7891,0.781,0.7676,0.7555,0.7487,0.7458,0.7413,0.7498,0.7482,0.752,0.7519,0.7659,0.7671,0.7475,0.7478,0.7479,0,0.8636,0.8608,0.842,0.8389,0.8355,0.8211,0.8181,0.8093,0.7989,0.7939,0.7809,0.7765,0.7598,0.7535,0.7434,0.7386,0.7361,0.7307,0.7281,0.7318,0.7326,0.7286,0.7277,0.7219,0.7219,0.7218,0.7218,0,0.8536,0.8399,0.8349,0.8297,0.812,0.81,0.8025,0.7905,0.785,0.7757,0.7719,0.7621,0.7566,0.7493,0.7365,0.7322,0.73,0.7215,0.7244,0.7248,0.7245,0.7246,0.7406,0.7217,0.7217,0.7216,0.7216,0,0.8375,0.8284,0.823,0.8079,0.8048,0.8014,0.7907,0.7846,0.7729,0.7663,0.7587,0.7482,0.7426,0.7352,0.7273,0.7254,0.7209,0.715,0.7149,0.7135,0.7055,0.7164,0.733,0.7342,0.7126,0.7125,0.7124,0,0.8298,0.8205,0.8079,0.8029,0.7968,0.7825,0.7784,0.7682,0.759,0.7524,0.7421,0.7345,0.7261,0.7217,0.7196,0.7086,0.7111,0.7079,0.6986,0.6984,0.7024,0.7174,0.7232,0.7309,0.7112,0.7113,0.7114,0,0.8219,0.8001,0.8,0.7934,0.7774,0.772,0.7673,0.7565,0.7529,0.7426,0.7383,0.7271,0.7203,0.7132,0.7034,0.7019,0.709,0.6947,0.6941,0.6979,0.7093,0.715,0.7164,0.7028,0.7029,0.703,0.7105,0,0.801,0.7944,0.7936,0.779,0.7727,0.7685,0.7538,0.749,0.7403,0.7304,0.7236,0.7112,0.6999,0.6976,0.6888,0.6896,0.6873,0.68,0.6715,0.6815,0.6836,0.6845,0.6697,0.6694,0.6691,0.6688,0,0,0.7968,0.7868,0.7727,0.7673,0.7611,0.7458,0.7428,0.7348,0.719,0.715,0.7102,0.6927,0.6826,0.6758,0.6778,0.6731,0.6719,0.6688,0.6769,0.6778,0.6787,0.6812,0.6823,0.6683,0.6682,0.6681,0.668,0,0.7859,0.7761,0.7731,0.7643,0.7506,0.7401,0.7395,0.7231,0.7165,0.7095,0.6968,0.6908,0.6769,0.668,0.6617,0.6694,0.66,0.667,0.6763,0.6745,0.6759,0.677,0.6799,0.6811,0.6673,0.6674,0.6674,0,0.7756,0.7636,0.7605,0.7451,0.7359,0.7296,0.7173,0.711,0.7062,0.6893,0.6825,0.6735,0.6602,0.6556,0.6529,0.6484,0.65,0.6466,0.648,0.6473,0.6449,0.6465,0.648,0.6288,0.6288,0.6287,0,0,0.7683,0.7618,0.7441,0.7416,0.7368,0.721,0.716,0.7065,0.6949,0.6903,0.6784,0.6676,0.6593,0.6541,0.6455,0.6425,0.6385,0.6425,0.6443,0.6459,0.6461,0.6441,0.6457,0.6284,0.6284,0.6284,0,0,0.7645,0.744,0.737,0.7323,0.7219,0.704,0.7031,0.6941,0.6848,0.6835,0.667,0.6634,0.6587,0.6502,0.6484,0.6422,0.6342,0.6343,0.6479,0.65,0.6517,0.6538,0.6336,0,0,0,0,0,0.7457,0.7465,0.7405,0.7375,0.7177,0.7075,0.7048,0.6913,0.686,0.6856,0.6743,0.6644,0.6459,0.6439,0.6411,0.6431,0.625,0.6256,0.6262,0.6429,0.6453,0.6472,0,0,0,0,0,0,0.7443,0.7407,0.7404,0.7229,0.7183,0.7073,0.6954,0.6917,0.6857,0.6839,0.6669,0.6638,0.652,0.6444,0.6421,0.6443,0.6344,0.6252,0.6257,0.6262,0.6437,0.6456,0.6473,0,0,0,0,0,0.7432,0.7402,0.712,0.7228,0.7188,0.701,0.6952,0.692,0.6871,0.6693,0.6659,0.6774,0.6524,0.6495,0.6429,0.6457,0.6359,0.6351,0.6255,0.626,0.6263,0.6447,0,0,0,0,0,0,0.7424,0.7372,0.7109,0.7092,0.7213,0.7013,0.6977,0.6924,0.6726,0.6693,0.679,0.6779,0.6527,0.6504,0.6482,0.647,0.6372,0.6363,0.6358,0.6259,0.6262,0.6265,0,0,0,0,0,0,0.7387,0.7359,0.71,0.7089,0.7069,0.7017,0.6985,0.6908,0.6725,0.6833,0.6818,0.6788,0.6559,0.6511,0.6493,0.6378,0.6381,0.6373,0.6367,0.6364,0.6261,0.6264,0,0,0,0,0,0,0.7373,0.7348,0.7093,0.7078,0.706,0.6856,0.6946,0.6751,0.6718,0.6845,0.6712,0.6708,0.6569,0.6548,0.6501,0.6395,0.6383,0.6381,0.6375,0.6371,0.6369,0,0,0,0,0,0,0,0.7361,0.7557,0.7212,0.7068,0.7052,0.6933,0.6928,0.6923,0.6718,0.6715,0.6712,0.671,0.6427,0.6418,0.6409,0.6409,0,0,0.6382,0.6378,0,0,0,0,0,0,0,0,0.7564,0.7559,0.7211,0.7208,0.7204,0.6932,0.6928,0.6924,0.6717,0.6715,0.6713,0.6711,0.6424,0.6417,0.641,0,0,0,0,0,0,0,0,0,0,0,0,0,0,0,0.7211,0.7208,0,0.6931,0.6928,0.6925,0.6717,0.6715,0.6713,0.6712,0.6422,0.6417,0.6411,0,0,0,0,0,0,0,0,0,0,0,0,0,0,0,0,0,0,0,0,0,0,0,0,0,0,0,0,0,0,0,0,0,0,0,0,0,0,0,0,0,0,0,0,0,0,0,0,0,0,0,0,0,0,0,0,0,0,0,0,0,0,0,0,0,0,0,0,0]}]]]